Tracking 19562 objects as of 22-Mar-2019
HD Live streaming from Space Station
objects crossing your sky now

EUTELSAT 1-F5 (ECS 5)

Track EUTELSAT 1-F5 (ECS 5) now!
EUTELSAT 1-F5 (ECS 5) is classified as:


NORAD ID: 19331
Int'l Code: 1988-063B
Perigee: 36,353.0 km
Apogee: 36,436.7 km
Inclination: 15.7 °
Period: 1,466.9 minutes
Semi major axis: 42765 km
RCS: 5.127 m2 (large)
Launch date: July 21, 1988
Source: European Telecommunications Satellite Organization (EUTE)
Launch site: FRENCH GUIANA (FRGUI)
aabbcc
Your satellite tracking list
Your tracking list is empty




NASA's NSSDC Master Catalog

Two Line Element Set (TLE):
1 19331U 88063B   19080.35500869 -.00000092 +00000-0 +00000-0 0  9998
2 19331 015.6697 007.0997 0009793 053.1809 285.0319 00.98165197088379
Source of the keplerian elements: AFSPC